User: anonymous   Login
Location: Waldport
(44.4270°N, 124.0680°W)
Time: 02:36:26
(UTC-07:00)
Language:

Cosmos 1570 Rocket - Orbit

View from above orbital plane
View from above orbital plane
View from above satellite
View from above satellite

Ground track
Ground track

The orbit data is extracted from the following two-line orbital elements,

1 15032U 84056B   14294.81749951  .00000464  00000-0  17379-3 0  5202
2 15032 074.0737 047.9691 0016345 094.0760 021.3559 14.34430835587912
Epoch (UTC): 21 October 2014 19:37:11
Eccentricity: 0.0016345
inclination: 74.0737°
perigee height: 765 km
apogee height: 788 km
right ascension of ascending node: 47.9691°
argument of perigee: 94.0760°
revolutions per day: 14.34430835
mean anomaly at epoch: 21.3559°
orbit number at epoch: 58791

The dashed part of the orbit path shows where the satellite is in the earth's shadow,  

DLR